Location: Mentone
(34.5413°N, 85.5351°W)
Time: 14:18:06
(UTC-05:00)

Transit 2A Rocket - Visible Passes

Search period start: 24 April 2014 00:00
Search period end: 04 May 2014 00:00
Orbit: 594 x 916 km, 66.7° (Epoch: 23 April)

Date Brightness Start Highest point End Pass type
(mag) Time Alt. Az. Time Alt. Az. Time Alt. Az.
25 Apr 7.4 22:59:41 10° NNW 23:00:26 14° N 23:00:26 14° N visible
26 Apr 6.9 22:18:38 10° N 22:19:58 16° NNE 22:19:58 16° NNE visible
27 Apr 6.9 21:38:11 10° NNE 21:39:32 13° NE 21:39:32 13° NE visible
27 Apr 7.6 23:19:06 10° NW 23:19:31 12° NW 23:19:31 12° NW visible
28 Apr 6.8 22:37:27 10° NNW 22:39:07 23° NNW 22:39:07 23° NNW visible
29 Apr 6.0 21:56:07 10° N 21:58:44 29° NNE 21:58:44 29° NNE visible
30 Apr 6.1 21:15:09 10° N 21:18:24 21° NE 21:18:24 21° NE visible
30 Apr 7.2 22:57:21 10° NW 22:58:23 16° WNW 22:58:23 16° WNW visible
01 May 6.7 20:35:00 10° NNE 20:36:38 12° NE 20:38:07 10° ENE visible
01 May 5.9 22:15:23 10° NW 22:18:05 36° NW 22:18:05 36° NW visible
02 May 4.6 21:33:48 10° NNW 21:37:50 66° NE 21:37:50 66° NE visible
03 May 5.4 20:52:33 10° N 20:56:30 34° ENE 20:57:38 29° E visible
03 May 7.0 22:36:02 10° WNW 22:37:37 15° W 22:37:37 15° W visible
